When you browse on this site, cookies collect data to enhance your experience and personalize the content and advertising you see.
Visit our Privacy Policy to learn more. By continuing to use the site, you agree to this use of cookies and data.
  • In Portugal
  • List of Countries
  • For 7 days
  • Water Temperature
  • Weather Map
  • Weather Widgets
  • user-avatar
    Login

    Hourly Weather Frisange

    Today, 7 April, Tuesday

    Time Temperature Precipitation Wind Pressure Humidity
    00:00 +11°C° 0 mm 1 mps 745 mmHg 88%
    01:00 +11°C° 0 mm 1 mps 746 mmHg 89%
    02:00 +11°C° 0 mm 1 mps 746 mmHg 89%
    03:00 +11°C° 0 mm 1 mps 746 mmHg 90%
    04:00 +11°C° 0 mm 1 mps 746 mmHg 90%
    05:00 +11°C° 0 mm 1 mps 747 mmHg 90%
    06:00 +11°C° 0 mm 1 mps 747 mmHg 90%
    07:00 +13°C° 0 mm 2 mps 747 mmHg 83%
    08:00 +15°C° 0 mm 2 mps 747 mmHg 76%
    09:00 +17°C° 0 mm 2 mps 747 mmHg 69%
    10:00 +18°C° 0 mm 2 mps 747 mmHg 63%
    11:00 +19°C° 0 mm 2 mps 747 mmHg 58%
    12:00 +20°C° 0 mm 2 mps 747 mmHg 53%
    13:00 +20°C° 0.1 mm 2 mps 747 mmHg 51%
    14:00 +21°C° 0.1 mm 2 mps 746 mmHg 50%
    15:00 +21°C° 0.1 mm 2 mps 746 mmHg 49%
    16:00 +19°C° 0 mm 2 mps 746 mmHg 55%
    17:00 +18°C° 0 mm 2 mps 745 mmHg 62%
    18:00 +16°C° 0 mm 2 mps 745 mmHg 68%
    19:00 +15°C° 0 mm 2 mps 745 mmHg 69%
    20:00 +14°C° 0 mm 2 mps 746 mmHg 70%
    21:00 +13°C° 0 mm 1 mps 746 mmHg 71%
    22:00 +13°C° 0 mm 1 mps 746 mmHg 73%
    23:00 +12°C° 0 mm 1 mps 745 mmHg 75%

    Tomorrow, 8 April, Wednesday

    Time Temperature Precipitation Wind Pressure Humidity
    00:00 +11°C° 0 mm 1 mps 745 mmHg 77%
    01:00 +11°C° 0 mm 1 mps 745 mmHg 78%
    02:00 +11°C° 0 mm 1 mps 745 mmHg 79%
    03:00 +10°C° 0 mm 1 mps 745 mmHg 81%
    04:00 +11°C° 0 mm 1 mps 745 mmHg 81%
    05:00 +11°C° 0 mm 1 mps 745 mmHg 81%
    06:00 +11°C° 0 mm 1 mps 745 mmHg 82%
    07:00 +13°C° 0 mm 1 mps 745 mmHg 75%
    08:00 +15°C° 0 mm 1 mps 745 mmHg 68%
    09:00 +18°C° 0 mm 1 mps 745 mmHg 61%
    10:00 +19°C° 0 mm 1 mps 745 mmHg 56%
    11:00 +21°C° 0 mm 1 mps 744 mmHg 51%
    12:00 +22°C° 0 mm 1 mps 744 mmHg 46%
    13:00 +22°C° 0 mm 1 mps 744 mmHg 45%
    14:00 +20°C° 0 mm 0 mps 743 mmHg 43%
    15:00 +20°C° 0 mm 0 mps 743 mmHg 42%
    16:00 +18°C° 0 mm 0 mps 743 mmHg 48%
    17:00 +19°C° 0 mm 1 mps 743 mmHg 53%
    18:00 +16°C° 0 mm 1 mps 743 mmHg 59%
    19:00 +14°C° 0 mm 0 mps 743 mmHg 59%
    20:00 +14°C° 0 mm 0 mps 743 mmHg 59%
    21:00 +13°C° 0 mm 0 mps 743 mmHg 60%
    22:00 +13°C° 0 mm 0 mps 743 mmHg 60%
    23:00 +12°C° 0 mm 0 mps 743 mmHg 61%

    Day after tomorrow, 9 April, Thursday

    Time Temperature Precipitation Wind Pressure Humidity
    00:00 +12°C° 0 mm 0 mps 743 mmHg 61%
    01:00 +12°C° 0 mm 0 mps 743 mmHg 62%
    02:00 +12°C° 0 mm 0 mps 743 mmHg 62%
    03:00 +11°C° 0 mm 0 mps 743 mmHg 63%
    04:00 +11°C° 0 mm 0 mps 743 mmHg 64%
    05:00 +11°C° 0 mm 0 mps 743 mmHg 66%
    06:00 +11°C° 0 mm 0 mps 743 mmHg 68%
    07:00 +13°C° 0 mm 0 mps 743 mmHg 63%
    08:00 +16°C° 0 mm 0 mps 744 mmHg 58%
    09:00 +18°C° 0 mm 0 mps 744 mmHg 53%
    10:00 +19°C° 0 mm 0 mps 744 mmHg 49%
    11:00 +22°C° 0 mm 1 mps 744 mmHg 45%
    12:00 +22°C° 0 mm 1 mps 744 mmHg 40%
    13:00 +22°C° 0 mm 1 mps 743 mmHg 41%
    14:00 +22°C° 0 mm 1 mps 743 mmHg 41%
    15:00 +20°C° 0 mm 0 mps 743 mmHg 41%
    16:00 +19°C° 0 mm 0 mps 743 mmHg 46%
    17:00 +17°C° 0 mm 0 mps 743 mmHg 52%
    18:00 +16°C° 0 mm 0 mps 743 mmHg 57%
    19:00 +15°C° 0 mm 0 mps 743 mmHg 60%
    20:00 +14°C° 0 mm 0 mps 743 mmHg 63%
    21:00 +13°C° 0 mm 0 mps 743 mmHg 65%
    22:00 +13°C° 0 mm 1 mps 743 mmHg 68%
    23:00 +13°C° 0 mm 1 mps 743 mmHg 71%

    10 April, Friday

    Time Temperature Precipitation Wind Pressure Humidity
    00:00 +12°C° 0 mm 1 mps 743 mmHg 74%
    01:00 +12°C° 0 mm 1 mps 743 mmHg 76%
    02:00 +12°C° 0 mm 1 mps 743 mmHg 79%
    03:00 +11°C° 0 mm 1 mps 743 mmHg 81%
    04:00 +12°C° 0 mm 1 mps 743 mmHg 81%
    05:00 +12°C° 0 mm 1 mps 743 mmHg 81%
    06:00 +12°C° 0 mm 1 mps 743 mmHg 82%
    07:00 +14°C° 0 mm 1 mps 743 mmHg 76%
    08:00 +16°C° 0 mm 1 mps 743 mmHg 70%
    09:00 +19°C° 0 mm 1 mps 743 mmHg 64%
    10:00 +19°C° 0 mm 2 mps 743 mmHg 59%
    11:00 +20°C° 0 mm 2 mps 743 mmHg 54%
    12:00 +21°C° 0 mm 2 mps 743 mmHg 49%
    13:00 +22°C° 0 mm 1 mps 742 mmHg 48%
    14:00 +22°C° 0 mm 1 mps 742 mmHg 47%
    15:00 +23°C° 0 mm 1 mps 741 mmHg 46%
    16:00 +21°C° 0 mm 1 mps 741 mmHg 51%
    17:00 +19°C° 0 mm 1 mps 741 mmHg 57%
    18:00 +18°C° 0 mm 1 mps 741 mmHg 63%
    19:00 +16°C° 0 mm 1 mps 741 mmHg 65%
    20:00 +15°C° 0 mm 1 mps 741 mmHg 68%
    21:00 +14°C° 0 mm 1 mps 741 mmHg 70%
    22:00 +14°C° 0 mm 1 mps 741 mmHg 72%
    23:00 +13°C° 0 mm 1 mps 741 mmHg 75%

    11 April, Saturday

    Time Temperature Precipitation Wind Pressure Humidity
    00:00 +13°C° 0 mm 1 mps 741 mmHg 77%
    01:00 +12°C° 0 mm 1 mps 740 mmHg 79%
    02:00 +12°C° 0 mm 1 mps 740 mmHg 82%
    03:00 +11°C° 0 mm 1 mps 740 mmHg 84%
    04:00 +11°C° 0 mm 1 mps 740 mmHg 85%
    05:00 +11°C° 0 mm 1 mps 740 mmHg 85%
    06:00 +12°C° 0 mm 1 mps 740 mmHg 85%
    07:00 +13°C° 0 mm 1 mps 740 mmHg 80%
    08:00 +15°C° 0 mm 2 mps 740 mmHg 74%
    09:00 +17°C° 0 mm 2 mps 740 mmHg 68%
    10:00 +18°C° 0 mm 2 mps 740 mmHg 63%
    11:00 +19°C° 0 mm 2 mps 740 mmHg 58%
    12:00 +21°C° 0 mm 3 mps 740 mmHg 53%
    13:00 +21°C° 0 mm 3 mps 740 mmHg 53%
    14:00 +21°C° 0 mm 3 mps 740 mmHg 54%
    15:00 +21°C° 0 mm 3 mps 740 mmHg 54%
    16:00 +19°C° 0.2 mm 3 mps 739 mmHg 63%
    17:00 +17°C° 0.2 mm 3 mps 739 mmHg 73%
    18:00 +14°C° 0.2 mm 3 mps 739 mmHg 82%
    19:00 +15°C° 0.5 mm 2 mps 739 mmHg 85%
    20:00 +14°C° 0.5 mm 1 mps 739 mmHg 89%
    21:00 +13°C° 0.5 mm 1 mps 740 mmHg 92%
    22:00 +13°C° 0.1 mm 1 mps 739 mmHg 92%
    23:00 +13°C° 0.1 mm 1 mps 739 mmHg 93%

    12 April, Sunday

    Time Temperature Precipitation Wind Pressure Humidity
    00:00 +13°C° 0.1 mm 2 mps 739 mmHg 93%
    01:00 +13°C° 0 mm 2 mps 739 mmHg 93%
    02:00 +13°C° 0 mm 2 mps 738 mmHg 94%
    03:00 +13°C° 0 mm 2 mps 738 mmHg 94%
    04:00 +13°C° 0 mm 2 mps 738 mmHg 93%
    05:00 +12°C° 0 mm 3 mps 737 mmHg 92%
    06:00 +12°C° 0 mm 3 mps 737 mmHg 92%
    07:00 +12°C° 0.1 mm 3 mps 737 mmHg 90%
    08:00 +13°C° 0.1 mm 4 mps 737 mmHg 88%
    09:00 +13°C° 0.1 mm 4 mps 736 mmHg 87%
    10:00 +14°C° 0.6 mm 4 mps 736 mmHg 83%
    11:00 +15°C° 0.6 mm 4 mps 735 mmHg 79%
    12:00 +17°C° 0.6 mm 4 mps 735 mmHg 75%
    13:00 +15°C° 0.8 mm 4 mps 734 mmHg 76%
    14:00 +15°C° 0.8 mm 4 mps 734 mmHg 77%
    15:00 +15°C° 0.8 mm 4 mps 733 mmHg 78%
    16:00 +14°C° 0.2 mm 4 mps 733 mmHg 82%
    17:00 +13°C° 0.2 mm 3 mps 733 mmHg 85%
    18:00 +12°C° 0.2 mm 3 mps 733 mmHg 89%
    19:00 +13°C° 0.1 mm 2 mps 733 mmHg 91%
    20:00 +12°C° 0.1 mm 2 mps 733 mmHg 93%
    21:00 +12°C° 0.1 mm 2 mps 733 mmHg 95%
    22:00 +12°C° 0 mm 2 mps 733 mmHg 95%
    23:00 +10°C° 0 mm 2 mps 734 mmHg 96%
    Show more